Weather reports worldwide

Advertisment
Wilkes-Barre/Scrant PA, United States of America (72513): temperature & dewpoint: 12.07.2019 01:00:00 - 18.07.2019 01:00:00 (EDT)Wilkes-Barre/Scrant PA, United States of America (72513): wind speed & gusts: 12.07.2019 01:00:00 - 18.07.2019 01:00:00 (EDT)Wilkes-Barre/Scrant PA, United States of America (72513): wind direction: 12.07.2019 01:00:00 - 18.07.2019 01:00:00 (EDT)Wilkes-Barre/Scrant PA, United States of America (72513): reduced air pressure: 12.07.2019 01:00:00 - 18.07.2019 01:00:00 (EDT)Wilkes-Barre/Scrant PA, United States of America (72513): visibility: 12.07.2019 01:00:00 - 18.07.2019 01:00:00 (EDT)Wilkes-Barre/Scrant PA, United States of America (72513): precipitation: 12.07.2019 01:00:00 - 18.07.2019 01:00:00 (EDT)
Date & Time tt [°C] td [°C] ff [km/h] ff [kn] fx [km/h] fx [kn] dd ppp [hPa] vv [km] rr [mm]
18.07.2019 01:00:00 23,3 21,7 0 0 - - N 1011,8 16 0,0
18.07.2019 00:00:00 23,3 22,2 0 0 - - N 1012,0 16 0,0
17.07.2019 23:00:00 23,9 22,2 5 3 - - NE 1012,0 16 -
17.07.2019 22:00:00 23,9 22,2 5 3 - - ENE 1012,2 16 0,0
17.07.2019 21:00:00 23,9 22,8 5 3 - - SE 1011,7 15 0,0
17.07.2019 20:00:00 23,9 22,8 5 3 - - ESE 1012,0 15 0,3
17.07.2019 19:00:00 23,9 22,8 0 0 - - N 1012,1 10 3,3
17.07.2019 18:00:00 23,9 22,2 9 5 - - SW 1013,0 8 1,0
17.07.2019 17:00:00 29,4 22,8 13 7 - - WNW 1011,4 16 0,0
17.07.2019 16:00:00 30,6 21,7 13 7 - - WSW 1011,4 16 0,0
17.07.2019 15:00:00 32,2 21,1 11 6 - - - 1011,7 16 -
17.07.2019 14:00:00 32,2 21,7 15 8 - - SW 1012,2 16 0,0
17.07.2019 13:00:00 32,2 21,7 16 9 - - WSW 1013,2 16 -
17.07.2019 12:00:00 31,1 20,6 15 8 - - WSW 1013,7 16 -
17.07.2019 11:00:00 28,9 21,7 9 5 - - WSW 1014,2 16 0,0
17.07.2019 10:00:00 27,2 21,7 11 6 - - W 1014,9 16 -
17.07.2019 09:00:00 25,6 21,1 11 6 - - WSW 1015,0 15 -
17.07.2019 08:00:00 23,9 21,7 0 0 - - N 1015,0 11 0,0
17.07.2019 07:00:00 22,8 21,1 5 3 - - N 1014,7 10 -
17.07.2019 06:00:00 21,1 20,6 0 0 - - N 1014,6 6 -
17.07.2019 05:00:00 21,7 20,6 0 0 - - N 1014,5 10 0,0
17.07.2019 04:00:00 21,7 20,6 0 0 - - N 1014,3 10 -
17.07.2019 03:00:00 22,2 21,1 0 0 - - N 1014,8 11 -
17.07.2019 02:00:00 22,2 21,1 0 0 - - N 1015,6 8 -
17.07.2019 01:00:00 22,8 21,1 0 0 - - N 1015,8 16 0,0
17.07.2019 00:00:00 22,8 21,7 5 3 - - SE 1016,4 11 0,8
16.07.2019 23:00:00 23,3 21,1 9 5 - - WSW 1017,5 16 0,0
16.07.2019 22:00:00 23,9 20,0 9 5 - - N 1017,2 16 -
16.07.2019 21:00:00 23,9 20,0 0 0 - - N 1016,6 16 -
16.07.2019 20:00:00 23,9 20,6 8 4 - - S 1016,7 16 0,0
16.07.2019 19:00:00 25,0 20,0 18 10 52 28 SW 1017,0 16 0,0
16.07.2019 18:00:00 28,9 19,4 42 23 65 35 WSW 1016,1 13 -
16.07.2019 17:00:00 31,7 19,4 16 9 - - WSW 1015,6 16 0,0
16.07.2019 16:00:00 32,8 19,4 18 10 - - WSW 1015,6 16 -
16.07.2019 15:00:00 31,7 19,4 18 10 - - W 1016,2 16 -
16.07.2019 14:00:00 30,6 18,3 16 9 - - SW 1017,1 16 0,0
16.07.2019 13:00:00 30,6 17,2 18 10 - - WSW 1017,7 16 -
16.07.2019 12:00:00 29,4 16,7 16 9 - - WSW 1018,0 16 -
16.07.2019 11:00:00 28,3 16,1 16 9 - - WSW 1018,0 16 0,0
16.07.2019 10:00:00 26,1 16,1 15 8 - - WSW 1018,6 16 -
16.07.2019 09:00:00 22,8 17,2 5 3 - - SW 1018,8 16 -
16.07.2019 08:00:00 21,1 16,1 0 0 - - N 1018,7 15 0,0
16.07.2019 07:00:00 18,3 15,0 5 3 - - ESE 1018,4 16 -
16.07.2019 06:00:00 17,2 14,4 11 6 - - E 1018,2 16 -
16.07.2019 05:00:00 17,2 14,4 8 4 - - E 1018,0 16 0,0
16.07.2019 04:00:00 17,8 14,4 9 5 - - ESE 1017,9 16 -
16.07.2019 03:00:00 17,8 14,4 5 3 - - ESE 1017,9 16 -
16.07.2019 02:00:00 18,3 14,4 9 5 - - ESE 1018,2 16 0,0
16.07.2019 01:00:00 19,4 15,0 11 6 - - ESE 1018,4 16 -
16.07.2019 00:00:00 20,6 15,6 11 6 - - E 1018,4 16 -
15.07.2019 23:00:00 21,7 15,6 11 6 - - E 1018,1 16 0,0
15.07.2019 22:00:00 22,8 16,1 9 5 - - E 1017,9 16 -
15.07.2019 21:00:00 23,3 17,8 0 0 - - N 1017,1 16 -
15.07.2019 20:00:00 27,2 14,4 5 3 - - N 1016,7 16 0,0
15.07.2019 19:00:00 28,3 13,9 11 6 - - NNW 1016,6 16 -
15.07.2019 18:00:00 28,9 13,9 13 7 - - NNW 1017,0 16 -
15.07.2019 17:00:00 29,4 13,9 9 5 - - NNW 1017,1 16 0,0
15.07.2019 16:00:00 29,4 14,4 15 8 - - NNW 1017,3 16 -
15.07.2019 15:00:00 28,3 14,4 11 6 - - NNW 1017,7 16 -
15.07.2019 14:00:00 27,8 15,0 8 4 - - - 1018,1 16 0,0
15.07.2019 13:00:00 26,7 15,0 8 4 - - WNW 1018,8 16 -
15.07.2019 12:00:00 26,1 15,6 0 0 - - N 1019,2 16 -
15.07.2019 11:00:00 24,4 15,0 9 5 - - - 1019,6 16 0,0
15.07.2019 10:00:00 22,8 15,0 8 4 - - WSW 1019,9 16 -
15.07.2019 09:00:00 21,1 15,6 0 0 - - N 1019,9 16 -
15.07.2019 08:00:00 19,4 15,6 0 0 - - N 1019,6 16 0,0
15.07.2019 07:00:00 16,7 13,9 5 3 - - ESE 1019,2 16 -
15.07.2019 06:00:00 15,0 13,9 0 0 - - N 1019,3 16 -
15.07.2019 05:00:00 16,1 13,9 9 5 - - ESE 1018,4 16 0,0
15.07.2019 04:00:00 15,6 14,4 5 3 - - ESE 1017,9 15 -
15.07.2019 03:00:00 16,1 15,0 0 0 - - N 1017,5 16 -
15.07.2019 02:00:00 17,2 15,0 5 3 - - NE 1017,8 16 0,0
15.07.2019 01:00:00 18,9 15,6 0 0 - - N 1018,3 16 -
15.07.2019 00:00:00 20,6 15,6 5 3 - - NE 1017,7 16 -
14.07.2019 23:00:00 22,2 15,0 5 3 - - NNW 1017,1 16 0,0
14.07.2019 22:00:00 22,8 15,6 8 4 - - N 1016,4 16 -
14.07.2019 21:00:00 24,4 15,0 8 4 - - N 1016,2 16 -
14.07.2019 20:00:00 26,7 13,9 13 7 - - NNW 1015,8 16 0,0
14.07.2019 19:00:00 28,3 13,3 16 9 - - NNW 1015,4 16 -
14.07.2019 18:00:00 28,9 13,3 22 12 - - NNW 1015,3 16 -
14.07.2019 17:00:00 29,4 13,3 22 12 - - WNW 1015,1 16 0,0
14.07.2019 16:00:00 30,0 13,9 15 8 - - NW 1015,0 16 -
14.07.2019 15:00:00 30,0 14,4 24 13 - - W 1014,8 16 -
14.07.2019 14:00:00 29,4 14,4 15 8 - - N 1015,2 16 0,0
14.07.2019 13:00:00 28,3 13,9 13 7 - - WNW 1015,4 16 -
14.07.2019 12:00:00 28,3 16,1 21 11 - - NW 1015,5 16 -
14.07.2019 11:00:00 27,8 16,7 15 8 - - NW 1015,2 16 0,0
14.07.2019 10:00:00 26,1 16,7 15 8 - - NNW 1014,9 16 -
14.07.2019 09:00:00 25,0 18,3 16 9 - - NW 1015,1 16 -
14.07.2019 08:00:00 23,3 18,3 8 4 - - SW 1014,7 15 0,0
14.07.2019 07:00:00 22,2 17,2 5 3 - - SW 1014,2 15 -
14.07.2019 06:00:00 22,8 16,7 8 4 - - WSW 1013,6 16 -
14.07.2019 05:00:00 22,2 17,2 11 6 - - SSW 1013,4 16 0,0
14.07.2019 04:00:00 21,7 17,8 8 4 - - SW 1013,2 16 -
14.07.2019 03:00:00 20,6 17,8 0 0 - - N 1013,2 16 -
14.07.2019 02:00:00 21,1 17,8 0 0 - - N 1013,4 16 0,0
14.07.2019 01:00:00 21,1 17,8 0 0 - - N 1013,5 16 -
14.07.2019 00:00:00 21,7 17,8 0 0 - - N 1013,4 16 -
13.07.2019 23:00:00 23,9 17,2 5 3 - - SW 1013,4 16 0,0
13.07.2019 22:00:00 24,4 17,2 9 5 - - SSW 1013,6 16 -
13.07.2019 21:00:00 25,6 17,8 8 4 - - SW 1013,1 16 -
13.07.2019 20:00:00 27,2 17,2 15 8 - - SW 1012,9 16 0,0
13.07.2019 19:00:00 28,3 17,2 13 7 - - SW 1012,6 16 -
13.07.2019 18:00:00 28,3 15,0 21 11 - - SW 1012,5 16 -
13.07.2019 17:00:00 28,9 15,6 16 9 - - SW 1012,9 16 0,0
13.07.2019 16:00:00 28,3 17,2 15 8 - - WSW 1013,5 16 -
13.07.2019 15:00:00 28,3 16,1 13 7 - - WSW 1013,8 16 -
13.07.2019 14:00:00 27,2 16,1 9 5 - - - 1014,3 16 0,0
13.07.2019 13:00:00 25,6 16,1 11 6 - - W 1014,5 16 -
13.07.2019 12:00:00 24,4 16,1 5 3 - - - 1015,0 16 -
13.07.2019 11:00:00 23,3 15,6 9 5 - - - 1015,0 16 0,0
13.07.2019 10:00:00 22,8 15,6 8 4 - - NW 1015,2 16 -
13.07.2019 09:00:00 21,1 16,1 0 0 - - N 1015,1 16 -
13.07.2019 08:00:00 20,6 16,1 9 5 - - WNW 1015,1 15 0,0
13.07.2019 07:00:00 16,7 15,6 0 0 - - N 1014,4 11 -
13.07.2019 06:00:00 16,1 15,0 0 0 - - N 1013,9 10 -
13.07.2019 05:00:00 16,7 15,6 0 0 - - N 1012,9 11 0,0
13.07.2019 04:00:00 17,2 16,1 0 0 - - N 1013,0 11 -
13.07.2019 03:00:00 17,2 16,1 0 0 - - N 1012,5 13 -
13.07.2019 02:00:00 18,3 16,1 5 3 - - ESE 1012,4 15 0,0
13.07.2019 01:00:00 18,3 16,7 9 5 - - ESE 1012,4 15 -
13.07.2019 00:00:00 18,9 16,7 5 3 - - ESE 1012,5 15 -
12.07.2019 23:00:00 19,4 17,2 0 0 - - N 1012,1 15 0,0
12.07.2019 22:00:00 22,2 16,7 0 0 - - N 1011,9 16 -
12.07.2019 21:00:00 22,2 16,7 0 0 - - N 1011,0 16 -
12.07.2019 20:00:00 25,0 16,7 11 6 - - NNW 1010,4 16 0,0
12.07.2019 19:00:00 26,1 17,2 21 11 - - NNW 1010,0 16 -
12.07.2019 18:00:00 26,1 17,8 13 7 - - N 1009,6 16 -
12.07.2019 17:00:00 26,7 17,2 16 9 - - NNW 1009,4 16 0,0
12.07.2019 16:00:00 26,7 16,7 16 9 - - N 1009,1 16 -
12.07.2019 15:00:00 26,7 16,7 15 8 - - WNW 1009,4 16 -
12.07.2019 14:00:00 26,1 15,6 16 9 - - NW 1009,4 16 0,0
12.07.2019 13:00:00 26,1 16,1 21 11 - - NW 1009,3 16 -
12.07.2019 12:00:00 27,2 16,7 21 11 - - NW 1008,5 16 -
12.07.2019 11:00:00 26,1 18,9 11 6 - - WNW 1008,1 16 0,0
12.07.2019 10:00:00 25,6 19,4 0 0 - - N 1008,1 15 -
12.07.2019 09:00:00 23,9 20,0 9 5 - - WSW 1007,8 15 -
12.07.2019 08:00:00 22,2 20,6 0 0 - - N 1007,7 13 0,0
12.07.2019 07:00:00 22,2 20,6 8 4 - - SW 1007,4 11 -
12.07.2019 06:00:00 21,7 20,6 8 4 - - WSW 1007,1 11 -
12.07.2019 05:00:00 21,7 20,6 9 5 - - SW 1006,5 10 0,0
12.07.2019 04:00:00 21,1 20,6 8 4 - - SSW 1006,7 8 -
12.07.2019 03:00:00 20,6 19,4 0 0 - - N 1006,8 10 -
12.07.2019 02:00:00 21,1 20,0 5 3 - - S 1007,2 11 0,0
12.07.2019 01:00:00 22,8 20,6 0 0 - - N 1007,3 16 -

tt = temperature
td = dewpoint
ff = wind speed
fx = gusts
dd = wind direction
ppp = reduced air pressure
vv = visibility
rr = precipitation

Next stations